Change the Weather History Date:

Thursday, August 9, 2012

  Actual Average Record
Temperature  
Mean Temperature 78 °F 71 °F  
Max Temperature 89 °F 81 °F 100 °F (2001)
Min Temperature 66 °F 61 °F 47 °F (1922)
Degree Days  
Heating Degree Days 0 0  
Month to date heating degree days 0 0  
Since 1 June heating degree days 43 69  
Since 1 July heating degree days 0 8  
Cooling Degree Days 13 6  
Month to date cooling degree days 108 54  
Year to date cooling degree days 724 400  
Since 1 June cooling degree days 629 370  
Growing Degree Days 28 (Base 50)    
Moisture  
Dew Point 66 °F    
Average Humidity 71    
Maximum Humidity 87    
Minimum Humidity 55    
Precipitation  
Precipitation 0.53 in 0.11 in 1.96 in (1991)
Month to date precipitation 0.63 1.02  
Year to date precipitation 17.39 22.04  
Snow  
Snow 0.00 in 0.00 in 0.00 in (2002)
Month to date snowfall 0.0 0.0  
Since 1 June snowfall 0.0 0.0  
Since 1 July snowfall 0.0 0.0  
Snow Depth 0.00 in    
Sea Level Pressure  
Sea Level Pressure 29.86 in    
Wind  
Wind Speed 5 mph (NNE)    
Max Wind Speed 40 mph    
Max Gust Speed 54 mph    
Visibility 9 miles    
Events Fog , Rain , Thunderstorm    
T = Trace of Precipitation, MM = Missing Value Source: NWS Daily Summary

Daily Weather History Graph

Daily Weather History Graph

Search for Another Location

Airport or City:

Trip Planner

Search our weather history database for the weather conditions in past years. The results will help you decide how hot, cold, wet, or windy it might be!

Date:

Astronomy

Aug. 09, 2012 Rise Set
Actual Time 6:04 AM EDT 8:14 PM EDT
Civil Twilight 5:32 AM EDT 8:46 PM EDT
Nautical Twilight 4:54 AM EDT 9:24 PM EDT
Astronomical Twilight 4:11 AM EDT 10:06 PM EDT
Moon 11:50 PM EDT (8/9) 1:57 PM EDT (8/9)
Length of Visible Light 15h 13m
Length of Day
14h 10m
Waning Gibbous, 51% of the Moon is Illuminated
Aug 9
Waning Gibbous
Aug 9
Last Quarter
Aug 17
New
Aug 24
First Quarter
Aug 31
Full

Hourly Weather History & Observations

Time (EDT) Temp. Heat Index Dew Point Humidity Pressure Visibility Wind Dir Wind Speed Gust Speed Precip Events Conditions
12:54 AM 73.0 °F - 64.9 °F 76% 29.89 in 10.0 mi Calm Calm - N/A   Overcast
1:54 AM 70.0 °F - 64.0 °F 81% 29.89 in 10.0 mi Calm Calm - N/A   Scattered Clouds
2:54 AM 69.1 °F - 64.0 °F 84% 29.88 in 10.0 mi Calm Calm - N/A   Scattered Clouds
3:54 AM 66.9 °F - 63.0 °F 87% 29.88 in 10.0 mi East 4.6 mph - N/A   Scattered Clouds
4:54 AM 69.1 °F - 63.0 °F 81% 29.88 in 10.0 mi South 3.5 mph - N/A   Overcast
5:54 AM 68.0 °F - 62.1 °F 81% 29.89 in 10.0 mi SE 3.5 mph - N/A   Mostly Cloudy
6:54 AM 68.0 °F - 63.0 °F 84% 29.90 in 10.0 mi East 3.5 mph - N/A   Mostly Cloudy
7:54 AM 72.0 °F - 63.0 °F 73% 29.90 in 10.0 mi ESE 6.9 mph - N/A   Mostly Cloudy
8:54 AM 75.2 °F - 64.4 °F 69% 29.90 in 10.0 mi ENE 3.5 mph - N/A   Overcast
9:54 AM 78.1 °F - 66.0 °F 66% 29.89 in 10.0 mi Calm Calm - N/A   Overcast
10:54 AM 81.0 °F 83.0 °F 66.0 °F 60% 29.88 in 10.0 mi Calm Calm - N/A   Overcast
11:54 AM 82.9 °F 85.8 °F 68.0 °F 60% 29.87 in 10.0 mi North 5.8 mph - N/A   Overcast
12:54 PM 86.0 °F 89.4 °F 68.0 °F 55% 29.85 in 10.0 mi NE 6.9 mph - N/A   Overcast
1:54 PM 84.9 °F 88.2 °F 68.0 °F 57% 29.84 in 10.0 mi North 11.5 mph - N/A   Overcast
2:54 PM 86.0 °F 89.4 °F 68.0 °F 55% 29.83 in 10.0 mi WNW 10.4 mph - N/A   Overcast
3:54 PM 84.0 °F 87.8 °F 69.1 °F 61% 29.82 in 10.0 mi NW 13.8 mph - 0.00 in   Overcast
4:54 PM 82.0 °F 85.5 °F 69.1 °F 65% 29.82 in 10.0 mi NNW 9.2 mph - 0.00 in   Overcast
5:54 PM 80.1 °F 82.9 °F 69.1 °F 69% 29.82 in 10.0 mi NNE 5.8 mph - N/A   Overcast
6:54 PM 79.0 °F - 68.0 °F 69% 29.81 in 10.0 mi NNE 4.6 mph - N/A   Overcast
7:54 PM 79.0 °F - 68.0 °F 69% 29.81 in 10.0 mi Calm Calm - N/A   Overcast
8:54 PM 78.1 °F - 68.0 °F 71% 29.83 in 10.0 mi NW 4.6 mph - N/A   Overcast
9:54 PM 73.9 °F - 69.1 °F 85% 29.82 in 10.0 mi NNE 3.5 mph - N/A   Overcast
10:54 PM 73.0 °F - 69.1 °F 87% 29.81 in 10.0 mi Calm Calm - N/A   Overcast
11:23 PM 73.4 °F - 68.0 °F 83% 29.88 in 8.0 mi SW 38.0 mph 54.1 mph 0.00 in Rain , Thunderstorm Light Thunderstorms and Rain
11:26 PM 69.8 °F - 64.4 °F 83% 29.88 in 0.8 mi West 32.2 mph 54.1 mph 0.00 in Rain , Thunderstorm Thunderstorms and Rain
11:35 PM 66.2 °F - 64.4 °F 94% 29.87 in 0.5 mi SW 13.8 mph 28.8 mph 0.27 in Fog , Rain , Thunderstorm Heavy Thunderstorms and Rain
11:39 PM 66.2 °F - 64.4 °F 94% 29.87 in 1.5 mi SW 10.4 mph 28.8 mph 0.40 in Rain , Thunderstorm Heavy Thunderstorms and Rain
11:45 PM 66.2 °F - 64.4 °F 94% 29.86 in 3.0 mi South 9.2 mph - 0.47 in Rain , Thunderstorm Thunderstorms and Rain
11:54 PM 66.9 °F - 64.9 °F 93% 29.83 in 6.0 mi SSE 10.4 mph - 0.50 in Rain , Thunderstorm Thunderstorms and Rain